Content
SEND FEEDBACK

Daily
Averages
Monthly
Summary
United States of America

AGAT, GUAM


Home > North America > United States > Guam
Elevation: 364 feet     Latitude: 13 33N     Longitude: 144 50E

WEATHER
 
SELECT A DAY
Number of Records: 209,044;   Date Range: 1/1/95 - 7/29/14
 
SHARE

PRINT THIS DATA

[ ← Previous Day ]
WEATHER ALMANAC - MAY 4, 2013
[ Next Day → ]
[ °C ]   °F
Weather ElementAverageHighLow
Temperature84.7 °F89.1 °F (11:54 am)80.6 °F (3:03 am)
Dewpoint75.9 °F78.8 °F (2:40 am)71.6 °F (5:10 pm)
Humidity75.4 %89 % (2:40 am)58 % (5:10 pm)
Barometer29.93 in29.97 in (9:54 pm)29.89 in (3:54 am)
Wind Speed8.7 mph15 mph (11:11 am)
Wind Gust21.9 mph (8:54 am)
Weather ElementAverage
Visibility8.7 mi
Wind DirectionENE (81.7 °)

Weather ElementTotal
Precipitation0.01 in
Cooling Degree Days19.9 (Base 65)
Growing Degree Days34.9 (Base 50)
Averaged from 35 records on May 4, 2013
WEATHER CONDITIONS BREAKOUT
WIND DIRECTION BREAKOUT
WEATHER BY HOUR - MAY 4, 2013
[ °C ]   °F
Local TimeTemperatureDewpointHumidityBarometerVisibilityWind DirectionWind SpeedGust SpeedPrecipitationEventsConditions
1:54 AM82.0 °F78.1 °F88 %29.90 in10.0 miEast (80°)5.8 mphPartly Cloudy
2:40 AM82.4 °F78.8 °F89 %29.92 in10.0 miCalm0.00 inMostly Cloudy
2:49 AM82.4 °F78.8 °F89 %29.92 in10.0 miCalm0.00 inOvercast
2:54 AM81.0 °F77.0 °F88 %29.90 in10.0 miCalm0.00 inMostly Cloudy
3:03 AM80.6 °F77.0 °F89 %29.92 in10.0 miCalmMostly Cloudy
3:10 AM80.6 °F77.0 °F89 %29.92 in10.0 miEast (80°)3.5 mphScattered Clouds
3:54 AM82.0 °F77.0 °F85 %29.89 in10.0 miEast (90°)5.8 mphPartly Cloudy
4:54 AM81.0 °F75.9 °F85 %29.89 in10.0 miEast (90°)5.8 mphPartly Cloudy
5:54 AM82.0 °F77.0 °F85 %29.90 in10.0 miEast (90°)5.8 mphClear
6:54 AM82.9 °F77.0 °F82 %29.91 in10.0 miEast (90°)10.4 mphScattered Clouds
7:54 AM84.0 °F77.0 °F79 %29.92 in10.0 miEast (100°)9.2 mphMostly Cloudy
8:54 AM84.9 °F77.0 °F77 %29.94 in10.0 miEast (100°)13.8 mph21.9 mph0.00 inClear
9:25 AM84.2 °F77.0 °F79 %29.96 in2.5 miEast (100°)10.4 mph0.00 inRainLight Rain
9:33 AM84.2 °F77.0 °F79 %29.96 in10.0 miEast (100°)10.4 mph0.00 inPartly Cloudy
9:54 AM86.0 °F75.9 °F72 %29.94 in10.0 miEast (100°)12.7 mph19.6 mph0.00 inScattered Clouds
10:54 AM87.1 °F75.9 °F69 %29.93 in10.0 miEast (90°)13.8 mphPartly Cloudy
11:11 AM87.8 °F75.2 °F66 %29.95 in1.2 miEast (90°)15.0 mphHaze
11:19 AM87.8 °F75.2 °F66 %29.95 in0.8 miEast (90°)15.0 mphHaze
11:27 AM87.8 °F75.2 °F66 %29.95 in1.5 miEast (100°)15.0 mphHaze
11:34 AM87.8 °F75.2 °F66 %29.95 in10.0 miEast (90°)11.5 mph21.9 mphPartly Cloudy
11:54 AM89.1 °F75.9 °F65 %29.92 in10.0 miESE (110°)12.7 mphPartly Cloudy
12:54 PM88.0 °F75.0 °F65 %29.91 in10.0 miESE (120°)9.2 mphScattered Clouds
1:54 PM88.0 °F75.0 °F65 %29.89 in10.0 miEast (100°)10.4 mph21.9 mphScattered Clouds
2:54 PM88.0 °F73.9 °F63 %29.89 in10.0 miEast (90°)13.8 mph19.6 mphPartly Cloudy
3:54 PM84.9 °F77.0 °F77 %29.89 in10.0 miEast (90°)8.1 mph0.01 inRainLight Rain
4:54 PM87.1 °F73.0 °F63 %29.89 in10.0 miEast (90°)10.4 mph0.00 inScattered Clouds
5:10 PM87.8 °F71.6 °F58 %29.92 in1.8 miESE (110°)12.7 mphHaze
5:12 PM87.8 °F71.6 °F58 %29.92 in7.0 miEast (100°)10.4 mphMostly Cloudy
5:54 PM86.0 °F73.9 °F67 %29.91 in10.0 miEast (90°)11.5 mphScattered Clouds
6:54 PM84.0 °F75.9 °F76 %29.93 in10.0 miEast (80°)6.9 mphScattered Clouds
7:54 PM82.9 °F75.9 °F79 %29.94 in10.0 miEast (80°)8.1 mphPartly Cloudy
8:54 PM82.9 °F75.9 °F79 %29.96 in10.0 miEast (80°)5.8 mphPartly Cloudy
9:54 PM82.9 °F75.9 °F79 %29.97 in10.0 miEast (80°)6.9 mphPartly Cloudy
10:54 PM82.9 °F75.9 °F79 %29.97 in10.0 miEast (80°)6.9 mphScattered Clouds
11:54 PM82.9 °F75.0 °F77 %29.95 in10.0 miEast (80°)8.1 mphPartly Cloudy
Hourly data recorded from PGUM, located miles away from Agat, Guam







STORIES FROM OUR PARTNERS